Liberia, Costa Rica

1:15 AM CST on December 08, 2016 (GMT -0600)
Daniel Oduber Quiros International

Weather History for MRLB - April, 2013

Change the Weather History Date:

Friday, April 5, 2013

  Actual Average Record
Temperature  
Mean Temperature 86 °F -  
Max Temperature 99 °F 94 °F 99 °F (2013)
Min Temperature 74 °F 78 °F 71 °F (2014)
Cooling Degree Days 22    
Growing Degree Days 36 (Base 50)    
Moisture  
Dew Point 67 °F    
Average Humidity 49    
Maximum Humidity 83    
Minimum Humidity 25    
Precipitation  
Precipitation 0.00 in - - ()
Sea Level Pressure  
Sea Level Pressure 29.83 in    
Wind  
Wind Speed 9 mph ()    
Max Wind Speed 81 mph    
Max Gust Speed -    
Visibility 7.8 miles    
Events      
Averages and records for this station are not official NWS values.
T = Trace of Precipitation, MM = Missing Value Source: Averaged Metar Reports

Daily Weather History Graph

Daily Weather History Graph

Search for Another Location

Airport or City:

Trip Planner

Search our weather history database for the weather conditions in past years. The results will help you decide how hot, cold, wet, or windy it might be!

Date:

Astronomy

Apr. 05, 2013 Rise Set
Actual Time 5:36 AM CST 5:52 PM CST
Civil Twilight 5:15 AM CST 6:14 PM CST
Nautical Twilight 4:50 AM CST 6:38 PM CST
Astronomical Twilight 4:26 AM CST 7:03 PM CST
Moon 1:53 AM CST (4/5) 2:01 PM CST (4/5)
Length of Visible Light 12h 58m
Length of Day
12h 16m
Waning Crescent, 23% of the Moon is Illuminated
Apr 5
Waning Crescent
Apr 10
New
Apr 18
First Quarter
Apr 25
Full
May 2
Last Quarter

Hourly Weather History & Observations

Time (CST) Temp. Heat Index Dew Point Humidity Pressure Visibility Wind Dir Wind Speed Gust Speed Precip Events Conditions
6:00 AM 75 °F - 69 °F 78% 29.86 in 12 mi Calm Calm - -   Clear
6:00 AM 75.2 °F - 69.8 °F 83% 29.85 in - Calm Calm - N/A   Clear
7:00 AM 80.6 °F 85.4 °F 73.4 °F 79% 29.89 in - WNW 3.5 mph - N/A   Clear
8:00 AM 84.2 °F 89.6 °F 71.6 °F 66% 29.90 in 6.2 mi West 6.9 mph - N/A   Scattered Clouds
9:00 AM 89 °F - 70 °F 44% 29.92 in 12 mi West 5.8 mph - -   Scattered Clouds
9:00 AM 89.6 °F 94.7 °F 69.8 °F 52% 29.91 in 6.2 mi West 5.8 mph - N/A   Scattered Clouds
10:00 AM 91.4 °F 96.8 °F 69.8 °F 49% 29.89 in 6.2 mi West 5.8 mph - N/A   Scattered Clouds
11:00 AM 91.4 °F 95.4 °F 68.0 °F 46% 29.87 in 6.2 mi NE 15.0 mph - N/A   Scattered Clouds
12:00 PM 96 °F - 64 °F 25% 29.86 in 12 mi East 10.4 mph - -   Partly Cloudy
12:00 PM 96.8 °F 99.0 °F 64.4 °F 34% 29.84 in 6.2 mi East 10.4 mph - N/A   Scattered Clouds
1:00 PM 96.8 °F 98.0 °F 62.6 °F 32% 29.80 in 6.2 mi East 12.7 mph - N/A   Scattered Clouds
2:00 PM 96.8 °F 98.0 °F 62.6 °F 32% 29.77 in 6.2 mi ENE 15.0 mph - N/A   Scattered Clouds
3:00 PM - - - %  in 12 mi West 80.6 mph - -  
3:00 PM 96.8 °F 99.0 °F 64.4 °F 34% 29.75 in 6.2 mi East 15.0 mph - N/A   Scattered Clouds
4:00 PM 95.0 °F 98.5 °F 66.2 °F 39% 29.74 in 6.2 mi ENE 18.4 mph - N/A   Scattered Clouds
5:00 PM 91.4 °F 93.2 °F 64.4 °F 41% 29.75 in 6.2 mi East 17.3 mph - N/A   Scattered Clouds
6:00 PM 87 °F - 65 °F 38% 29.78 in 12 mi East 13.8 mph - -   Scattered Clouds
6:00 PM 87.8 °F 89.4 °F 64.4 °F 46% 29.76 in 6.2 mi East 13.8 mph - N/A   Scattered Clouds
7:00 PM 86.0 °F 88.2 °F 66.2 °F 51% 29.79 in 6.2 mi ESE 6.9 mph - N/A   Scattered Clouds
8:00 PM 84.2 °F 85.6 °F 64.4 °F 51% 29.82 in 6.2 mi ESE 8.1 mph - N/A   Partly Cloudy
9:00 PM 84.2 °F 85.6 °F 64.4 °F 51% 29.86 in - East 13.8 mph - N/A   Clear
10:00 PM 82.4 °F 84.6 °F 66.2 °F 58% 29.89 in - ENE 12.7 mph - N/A   Clear